Location: Vibo Valentia
(38.6670°N, 16.1000°E)
Time: 05:49:10
(UTC+01:00)

ISS - Visible Passes

Search period start: 20 January 2019 00:00
Search period end: 30 January 2019 00:00
Orbit: 404 x 410 km, 51.6° (Epoch: 20 January)

Date Brightness Start Highest point End Pass type
(mag) Time Alt. Az. Time Alt. Az. Time Alt. Az.
20 Jan -1.4 18:01:19 10° SE 18:01:40 10° SE 18:02:02 10° ESE visible
20 Jan -0.6 19:34:28 10° SW 19:34:52 13° WSW 19:34:52 13° WSW visible
21 Jan -3.4 18:43:12 10° SW 18:46:04 50° SSE 18:46:04 50° SSE visible
22 Jan -2.5 17:52:21 10° SSW 17:55:10 27° SE 17:57:11 15° E visible
22 Jan -1.1 19:28:38 10° W 19:29:55 19° W 19:29:55 19° W visible
23 Jan -3.3 18:36:56 10° WSW 18:40:10 55° NW 18:40:56 42° NNE visible
24 Jan -3.8 17:45:29 10° SW 17:48:46 75° SE 17:51:52 11° NE visible
24 Jan -1.0 19:23:18 10° WNW 19:24:36 16° NW 19:24:36 16° NW visible
25 Jan -2.0 18:31:12 10° W 18:34:02 25° NNW 18:35:27 19° N visible
26 Jan -2.8 17:39:20 10° WSW 17:42:29 42° NNW 17:45:39 10° NE visible
26 Jan -0.8 19:18:25 10° NW 19:18:57 11° NNW 19:18:57 11° NNW visible
27 Jan -1.4 18:25:56 10° WNW 18:28:00 15° NNW 18:29:41 11° NNE visible
29 Jan -1.1 18:21:12 10° NNW 18:22:03 11° NNW 18:22:54 10° N visible
